Theta_e
295 297 300 303 303 302 301 300 299 297 297 294 293 292 291 292 293 294 294 294 294 294 294 294 293 294 293 293 293 293 292 291 288 291 293 294 293 293 294 296 295 296 296
294 296 297 298 299 299 298 297 297 295 295 294 292 291 291 291 292 292 292 293 292 292 292 293 292 293 292 293 292 291 291 292 290 288 291 291 291 292 293 293 293 294 294
293 293 294 295 296 296 296 296 295 294 293 293 292 291 290 291 291 292 292 292 292 292 292 292 292 292 291 291 291 291 292 291 291 289 288 291 291 292 291 292 292 293 293
293 292 292 292 293 294 294 294 293 293 292 291 291 290 290 290 291 290 290 291 291 292 292 292 292 291 291 291 291 290 290 289 288 287 287 288 290 291 290 289 288 290 291
291 292 291 291 291 291 291 291 291 291 290 290 289 289 289 290 289 289 290 290 291 291 291 292 292 291 289 291 289 289 288 287 287 286 285 286 288 288 286 287 285 287 289
290 290 291 290 290 290 290 290 289 289 289 289 288 288 288 289 290 290 290 290 290 290 290 290 291 287 288 289 289 288 288 287 286 285 285 284 286 286 286 283 284 282 281
290 289 290 290 290 289 289 289 288 288 288 288 287 288 288 288 290 290 289 290 289 289 289 289 289 289 288 290 288 288 287 288 288 287 285 286 285 284 283 283 282 281 281
287 288 287 289 288 288 288 288 288 288 288 287 287 288 288 288 290 290 288 290 289 289 289 289 288 288 289 288 288 287 287 287 287 288 288 287 286 285 283 282 281 281 283
285 285 286 285 287 286 286 286 287 287 285 285 286 287 287 288 290 290 289 288 287 288 288 289 288 288 287 287 287 286 286 287 288 287 288 286 284 283 281 281 280 280 280
284 285 285 286 285 286 286 286 287 287 285 285 286 287 287 289 290 290 289 288 286 286 286 287 285 287 287 288 287 286 285 286 286 285 285 284 283 280 278 278 278 277 277
284 284 284 286 285 285 286 286 286 286 285 285 285 286 286 288 290 290 289 286 286 285 285 285 286 287 288 288 288 287 286 286 285 284 284 283 281 280 278 277 276 277 277
282 282 283 285 286 285 285 286 286 286 285 285 285 285 285 286 288 290 289 287 288 285 285 285 286 287 287 287 286 287 287 285 284 283 283 282 281 279 277 276 275 275 275
280 280 282 283 285 285 285 285 285 285 286 286 285 285 284 284 285 289 290 288 288 286 286 286 286 286 285 285 285 286 283 284 283 282 282 281 280 279 276 276 275 275 275
277 278 280 282 284 286 285 285 285 285 285 286 285 285 285 284 285 286 287 289 286 286 286 286 286 286 285 285 284 285 284 283 282 282 281 280 278 277 277 278 277 276 276
275 277 279 281 283 285 285 285 285 286 287 286 286 286 285 284 285 286 287 287 287 286 285 285 284 284 283 283 284 284 283 282 281 281 280 279 277 276 276 276 276 276 276
272 275 277 278 280 282 285 285 287 288 288 289 289 288 287 289 288 287 287 288 288 287 285 283 283 283 282 282 283 283 283 281 281 280 279 278 277 276 275 274 275 276 276
269 272 274 276 278 279 283 285 284 285 288 288 289 289 288 287 288 287 287 287 288 287 285 284 284 283 283 281 283 283 282 282 278 279 278 276 275 275 274 275 275 275 274
267 269 272 276 277 278 280 283 285 285 283 284 287 288 288 288 288 287 288 287 285 286 285 284 283 283 283 281 281 283 281 279 278 278 277 276 275 275 275 275 275 274 274
267 270 272 273 276 277 279 282 284 285 284 285 285 286 286 287 288 288 288 285 285 284 284 284 284 283 282 281 282 283 282 280 278 277 276 274 274 275 275 274 272 267 268
268 268 269 271 274 277 278 281 283 284 285 285 284 285 284 284 284 285 286 286 285 285 284 284 284 283 282 281 281 281 280 278 276 277 276 275 274 275 272 271 272 271 271
267 268 268 271 274 275 277 279 283 284 284 284 284 285 285 285 285 285 285 285 285 285 284 284 284 283 282 281 279 277 278 279 278 276 276 275 272 272 273 273 271 270 268
265 267 268 270 272 273 275 278 281 283 284 285 284 285 286 285 285 285 285 285 284 284 282 283 284 283 282 280 277 276 277 278 278 276 275 273 272 272 271 271 270 269 267
264 265 267 269 270 271 273 275 278 281 283 284 284 284 284 285 285 285 285 282 281 279 279 283 282 278 277 277 277 278 277 277 278 277 275 273 272 271 271 270 269 268 267
263 264 266 267 268 269 270 272 273 275 279 281 282 283 284 284 283 281 279 279 279 278 278 279 280 278 277 277 276 276 275 276 276 275 275 273 272 269 270 269 268 268 267
261 262 263 264 265 266 268 268 269 270 271 271 275 277 278 278 277 277 277 277 277 276 277 279 279 279 279 279 278 277 274 271 272 272 273 273 271 269 269 269 268 267 265
259 260 261 262 263 264 264 265 265 266 267 268 269 270 271 272 272 273 273 273 273 273 273 273 275 274 274 275 275 275 275 271 269 270 273 273 271 269 268 268 266 266 265
Wind_Speed
15 11 10 4 4 6 8 10 12 13 13 14 12 13 10 10 9 9 9 12 12 11 9 10 9 9 6 6 4 3 3 3 4 6 5 8 10 10 9 9 10 9 9
15 11 8 6 1 5 6 9 11 13 13 14 12 14 14 12 5 7 10 10 13 12 11 11 10 7 8 7 5 5 4 4 3 7 7 6 7 9 9 11 9 8 10
15 11 8 7 6 3 5 7 10 12 12 14 15 11 10 13 11 9 10 10 12 12 12 11 10 10 8 6 6 5 4 4 4 4 6 6 4 5 7 8 7 8 9
14 11 7 7 6 4 1 5 7 10 13 13 10 12 10 13 11 10 9 10 9 10 10 10 9 9 8 8 6 5 3 2 2 4 4 6 6 5 5 6 7 6 11
15 11 8 4 4 3 2 4 6 7 8 10 11 11 9 10 9 10 10 10 10 11 9 9 8 7 5 6 4 5 4 3 3 4 5 5 6 5 5 3 5 9 10
14 14 8 5 1 1 1 5 7 8 7 8 10 9 10 7 14 16 12 9 11 11 10 9 7 7 7 7 7 5 5 4 5 4 6 6 4 5 3 5 6 7 7
14 14 12 6 3 3 4 3 4 8 7 8 8 10 9 8 17 17 13 9 10 10 9 8 7 5 6 7 7 7 7 8 9 6 8 5 3 3 5 7 8 8 8
12 14 12 10 5 3 4 7 6 4 7 6 7 7 8 6 17 18 14 10 9 9 9 9 8 8 7 7 6 5 5 5 5 4 4 4 2 2 4 6 8 9 6
11 13 12 10 8 4 4 4 5 6 6 5 6 8 8 8 18 18 14 8 8 8 8 8 8 8 9 8 6 4 5 4 4 3 2 3 5 6 6 5 4 6 3
12 13 12 10 9 7 6 6 5 6 5 6 6 6 8 11 18 19 14 7 8 6 7 6 8 8 9 10 5 4 5 3 2 1 1 4 4 6 7 6 4 3 3
12 12 12 11 9 8 7 5 6 8 8 7 8 7 6 8 13 20 18 8 7 6 6 6 5 11 10 7 7 5 4 4 3 1 2 3 3 2 3 4 4 4 4
11 12 12 10 8 6 7 8 7 8 9 8 8 7 6 7 8 16 17 12 12 8 7 6 5 11 7 4 4 5 5 5 2 2 3 3 2 2 3 4 4 5 4
12 12 11 12 9 7 7 7 6 7 7 8 9 8 7 6 6 13 15 15 15 6 5 9 12 9 5 3 3 5 5 3 3 3 3 3 2 3 5 4 3 6 6
12 12 12 11 11 7 5 5 6 7 7 7 8 8 7 6 6 6 7 9 10 6 10 7 8 7 6 3 3 4 2 2 3 3 3 3 3 4 3 3 3 4 2
11 11 11 9 10 9 7 7 7 8 10 8 8 8 8 8 9 12 13 10 8 9 9 6 4 5 5 5 4 4 3 3 4 4 4 3 3 3 3 4 3 3 1
13 10 10 9 8 8 8 6 15 15 17 19 16 13 7 10 19 21 20 18 19 20 7 7 7 6 8 6 5 5 3 4 4 4 4 3 3 3 4 4 3 3 1
12 13 10 10 8 8 8 7 6 8 16 19 18 19 19 15 20 23 23 21 21 21 7 7 6 7 7 6 5 5 5 3 3 3 5 4 4 3 4 4 5 4 2
11 14 10 9 9 9 9 8 6 6 7 8 18 16 18 18 20 22 23 20 12 13 8 7 8 6 7 7 7 6 5 5 4 3 4 5 4 4 5 5 4 3 2
9 9 10 10 10 10 9 9 8 6 7 7 5 10 13 19 18 20 25 11 11 11 9 8 6 7 7 7 6 6 6 6 5 4 3 4 6 5 5 4 4 4 3
9 12 11 10 10 9 8 8 7 7 5 7 7 8 8 10 10 11 12 9 10 9 9 8 8 7 7 7 6 6 6 5 6 5 4 4 5 5 5 5 5 4 3
9 9 12 9 9 8 8 9 7 7 6 5 7 7 15 10 11 12 12 9 9 9 9 8 8 7 6 6 6 6 7 6 6 6 5 5 5 5 4 5 4 4 6
8 9 8 9 9 9 8 8 7 6 6 5 6 7 21 8 9 11 11 9 8 7 6 8 8 8 7 7 6 8 7 6 6 7 7 6 6 5 6 5 5 3 5
8 9 9 8 8 11 8 8 7 6 5 5 5 6 9 8 9 10 10 8 7 7 6 6 8 6 4 4 5 6 6 6 6 7 7 7 7 8 7 6 6 5 4
7 8 8 8 8 8 9 9 8 9 5 2 2 4 8 6 7 9 8 9 7 7 7 6 6 9 8 6 4 4 3 2 4 6 8 7 7 7 7 7 6 5 6
7 7 7 8 8 8 9 9 9 9 9 9 8 6 5 5 7 8 9 8 7 6 7 6 5 8 10 10 7 5 4 5 5 5 6 7 7 10 6 5 7 6 6
7 7 7 7 7 8 8 8 9 9 10 9 9 9 8 8 7 7 8 10 8 6 6 4 6 7 8 6 5 4 5 7 7 8 6 6 7 7 7 7 9 6 7
Wind_Direction
336 334 315 281 186 176 182 178 171 157 165 156 157 145 149 147 162 156 181 157 156 151 156 159 152 152 155 157 148 167 196 219 264 301 307 311 315 317 325 329 318 319 321
334 336 333 328 279 178 176 169 161 161 161 158 159 156 160 132 169 169 176 176 159 156 164 161 157 161 162 159 163 182 199 210 248 282 304 306 316 319 322 321 324 328 323
335 338 336 325 311 235 172 171 171 163 159 155 149 151 173 146 159 180 185 184 165 159 163 163 165 171 167 169 182 193 195 217 242 265 292 307 293 295 309 311 321 321 313
338 329 348 343 332 328 357 162 165 166 157 147 148 142 168 144 169 166 170 176 167 157 160 164 170 176 178 179 185 194 213 221 263 274 281 294 307 304 298 315 333 326 315
343 332 328 345 11 356 101 125 131 141 139 142 137 129 168 151 161 170 165 173 165 153 164 167 175 181 157 169 174 186 203 231 252 271 271 283 304 319 327 355 314 315 314
349 333 321 309 8 105 156 146 125 126 140 139 137 152 158 165 167 166 170 167 166 159 167 163 160 154 169 173 184 195 221 228 251 268 285 292 295 311 352 329 316 336 334
340 350 325 307 251 192 141 126 141 147 143 152 150 149 164 160 168 168 171 175 155 163 159 162 164 171 175 180 189 210 222 239 252 279 278 296 305 12 324 323 332 316 306
329 335 341 315 297 246 174 158 140 138 143 151 153 155 148 170 173 177 175 161 154 156 158 166 167 168 181 176 182 203 221 232 221 247 276 311 334 16 338 320 309 304 288
331 328 326 320 293 265 221 168 143 150 144 154 171 164 169 175 182 178 171 156 148 155 161 169 171 168 175 186 189 195 230 229 218 278 330 41 74 49 14 316 350 328 2
326 321 317 308 295 252 241 200 169 168 155 148 156 173 182 184 183 177 172 156 152 157 159 167 186 170 174 192 184 189 235 201 215 263 143 117 95 70 37 35 355 357 6
319 313 312 308 290 271 246 218 192 177 169 171 171 174 197 192 186 181 171 161 161 160 169 180 182 182 182 203 202 206 210 145 193 226 164 159 114 106 63 55 32 21 27
312 309 306 304 290 263 235 212 203 189 175 177 180 185 175 175 198 185 178 176 176 172 171 166 174 184 171 192 191 198 175 157 168 183 183 182 186 138 102 81 57 63 52
314 308 305 302 296 262 232 216 196 190 191 185 187 193 188 166 172 191 191 190 193 168 162 167 161 172 180 203 208 174 164 181 169 173 190 187 146 120 122 124 112 94 78
310 309 307 306 307 290 261 234 215 192 197 192 188 191 172 169 174 180 193 193 188 166 155 159 166 157 181 211 201 169 182 204 178 164 175 141 138 148 158 184 151 126 128
310 306 306 303 301 298 256 236 225 221 205 199 195 183 180 181 194 189 193 188 171 174 150 147 169 165 182 208 191 179 180 189 187 167 162 166 142 158 174 212 193 136 254
313 312 312 304 303 294 283 251 228 233 217 217 205 187 184 197 172 189 196 186 184 169 159 171 191 190 197 191 197 177 183 206 198 158 141 145 148 175 183 197 157 146 153
309 306 304 300 299 297 289 274 252 219 230 218 204 186 177 182 177 185 190 184 184 173 180 175 187 198 195 190 190 192 190 185 192 155 134 133 131 143 203 176 144 138 123
304 297 292 295 294 295 285 277 245 219 204 213 218 204 185 178 184 181 181 170 180 184 186 177 184 185 192 180 193 197 174 149 191 160 134 137 138 188 182 167 142 123 107
311 306 307 297 290 286 282 271 261 229 210 212 192 201 196 185 182 177 171 178 177 184 184 176 171 188 192 176 186 190 192 166 159 154 147 157 146 208 170 149 117 91 120
313 303 299 296 294 293 287 276 262 248 228 207 195 195 172 167 176 174 179 180 177 180 179 176 175 174 178 182 187 188 203 150 151 154 162 173 162 195 164 154 149 146 126
313 308 309 297 301 304 301 289 270 248 238 197 198 188 183 177 175 172 179 181 179 168 173 174 170 166 178 177 161 194 200 163 160 153 159 182 165 178 155 144 151 125 129
309 309 310 309 311 316 313 300 284 260 238 213 191 188 187 182 175 168 170 178 166 156 159 171 168 173 173 175 170 204 190 173 164 160 163 168 172 163 144 147 143 140 139
319 318 325 324 324 322 324 326 327 300 255 243 184 172 188 190 176 170 162 142 136 137 148 160 152 140 142 154 176 221 184 181 172 166 161 177 176 157 152 157 157 153 155
331 332 335 339 339 336 340 347 360 359 344 291 219 185 188 173 158 142 135 120 136 146 146 151 156 153 155 160 172 207 218 174 136 161 162 179 169 152 149 149 163 162 154
348 352 352 353 354 355 347 360 7 11 21 30 22 36 63 89 119 123 122 116 122 129 135 138 144 152 149 169 174 164 169 167 161 137 166 170 161 151 150 156 155 158 147
2 5 5 1 7 8 4 10 5 14 19 29 33 37 40 58 62 77 97 105 102 99 110 103 121 137 134 131 139 142 153 162 163 171 166 166 157 152 156 159 169 163 162